,,,PA_Meas_PMT16A,,PR_Meas_QMR101_102,,RH_Meas_QMH101,,SR_Meas_QMS101,,TA_Meas_QMH101,,GenWind,,GenWind,
date,time,status,PA,status,PR,status,RH,status,SR,status,TA,status,DirAvg,status,SpdAvg,
2010-03-09, 00:00:04,VALID,1011.97,VALID,0,VALID,100.485,VALID,0,VALID,24.0058,VALID,170,VALID,0.376563,
2010-03-09, 00:01:04,VALID,1011.96,VALID,0,VALID,100.492,VALID,0,VALID,24.004,VALID,171,VALID,0.403516,
2010-03-09, 00:02:04,VALID,1011.92,VALID,0,VALID,100.454,VALID,0.105969,VALID,23.9845,VALID,196,VALID,0.539453,
2010-03-09, 00:03:04,VALID,1011.91,VALID,0,VALID,100.431,VALID,0,VALID,23.9863,VALID,196,VALID,0.261719,
2010-03-09, 00:04:04,VALID,1011.87,VALID,0,VALID,100.324,VALID,0.105969,VALID,23.9455,VALID,198,VALID,0.516406,
2010-03-09, 00:05:04,VALID,1011.85,VALID,0,VALID,100.256,VALID,0,VALID,23.9668,VALID,197,VALID,0.363281,
2010-03-09, 00:06:04,VALID,1011.85,VALID,0,VALID,100.286,VALID,0.105969,VALID,23.9863,VALID,197,VALID,0.429297,
2010-03-09, 00:07:04,VALID,1011.86,VALID,0,VALID,100.34,VALID,0,VALID,23.9455,VALID,187,VALID,0.539844,
2010-03-09, 00:08:04,VALID,1011.87,VALID,0,VALID,100.218,VALID,0,VALID,23.9473,VALID,205,VALID,0.963672,
2010-03-09, 00:09:04,VALID,1011.84,VALID,0,VALID,100.157,VALID,0.105969,VALID,23.926,VALID,212,VALID,0.548047,
2010-03-09, 00:10:04,VALID,1011.84,VALID,0,VALID,100.225,VALID,0,VALID,23.926,VALID,199,VALID,1.11563,
2010-03-09, 00:11:04,VALID,1011.86,VALID,0,VALID,100.317,VALID,0,VALID,23.9278,VALID,185,VALID,1.06836,
2010-03-09, 00:12:04,VALID,1011.87,VALID,0,VALID,100.279,VALID,0,VALID,23.9065,VALID,206,VALID,0.823438,
2010-03-09, 00:13:04,VALID,1011.9,VALID,0,VALID,100.317,VALID,0.105969,VALID,23.9473,VALID,199,VALID,0.933594,
2010-03-09, 00:14:04,VALID,1011.92,VALID,0,VALID,100.263,VALID,0,VALID,23.926,VALID,198,VALID,0.913672,
2010-03-09, 00:15:04,VALID,1011.94,VALID,0,VALID,100.202,VALID,0,VALID,23.9473,VALID,195,VALID,0.858594,
2010-03-09, 00:16:04,VALID,1011.91,VALID,0,VALID,99.9813,VALID,0,VALID,23.9455,VALID,187,VALID,0.732031,
2010-03-09, 00:17:04,VALID,1011.88,VALID,0,VALID,99.8287,VALID,0,VALID,23.9455,VALID,207,VALID,1.09023,
2010-03-09, 00:18:04,VALID,1011.88,VALID,0,VALID,99.8059,VALID,0,VALID,23.9845,VALID,178,VALID,1.39688,
2010-03-09, 00:19:04,VALID,1011.87,VALID,0,VALID,99.7372,VALID,0,VALID,23.9845,VALID,197,VALID,1.08281,
2010-03-09, 00:20:04,VALID,1011.84,VALID,0,VALID,99.6,VALID,0.105969,VALID,24.0253,VALID,213,VALID,0.878125,
2010-03-09, 00:21:04,VALID,1011.84,VALID,0,VALID,99.5847,VALID,0,VALID,24.0253,VALID,186,VALID,0.750781,
2010-03-09, 00:22:04,VALID,1011.83,VALID,0,VALID,99.4322,VALID,0,VALID,24.0235,VALID,190,VALID,0.867578,
2010-03-09, 00:23:04,VALID,1011.85,VALID,0,VALID,99.4627,VALID,0,VALID,24.0448,VALID,208,VALID,1.06172,
2010-03-09, 00:24:04,VALID,1011.85,VALID,0,VALID,99.4703,VALID,0,VALID,24.0448,VALID,199,VALID,0.730859,
2010-03-09, 00:25:04,VALID,1011.87,VALID,0,VALID,99.4093,VALID,0,VALID,24.0429,VALID,213,VALID,0.703125,
2010-03-09, 00:26:04,VALID,1011.86,VALID,0,VALID,99.4551,VALID,0.105969,VALID,24.0429,VALID,177,VALID,0.695703,
2010-03-09, 00:27:04,VALID,1011.83,VALID,0,VALID,99.4856,VALID,0,VALID,24.0643,VALID,204,VALID,0.862891,
2010-03-09, 00:28:04,VALID,1011.81,VALID,0,VALID,99.4474,VALID,0,VALID,24.0429,VALID,185,VALID,0.506641,
2010-03-09, 00:29:04,VALID,1011.78,VALID,0,VALID,99.5237,VALID,0,VALID,24.0837,VALID,161,VALID,0.379687,
2010-03-09, 00:30:04,VALID,1011.77,VALID,0,VALID,99.5618,VALID,0,VALID,24.0643,VALID,177,VALID,0.903516,
2010-03-09, 00:31:04,VALID,1011.76,VALID,0,VALID,99.4932,VALID,0,VALID,24.0837,VALID,172,VALID,0.673437,
2010-03-09, 00:32:04,VALID,1011.75,VALID,0,VALID,99.4474,VALID,0,VALID,24.0624,VALID,187,VALID,0.589844,
2010-03-09, 00:33:04,VALID,1011.72,VALID,0,VALID,99.5237,VALID,0,VALID,24.0819,VALID,167,VALID,0.694531,
2010-03-09, 00:34:04,VALID,1011.71,VALID,0,VALID,99.5161,VALID,0,VALID,24.0837,VALID,163,VALID,0.885938,
2010-03-09, 00:35:04,VALID,1011.7,VALID,0,VALID,99.5085,VALID,0,VALID,24.0624,VALID,172,VALID,0.675781,
2010-03-09, 00:36:04,VALID,1011.7,VALID,0,VALID,99.4093,VALID,0,VALID,24.0819,VALID,160,VALID,0.941406,
2010-03-09, 00:37:04,VALID,1011.7,VALID,0,VALID,99.3407,VALID,0.105969,VALID,24.0429,VALID,176,VALID,0.578906,
2010-03-09, 00:38:04,VALID,1011.67,VALID,0,VALID,99.4093,VALID,0.105969,VALID,24.0624,VALID,178,VALID,0.486719,
2010-03-09, 00:39:04,VALID,1011.66,VALID,0,VALID,99.3559,VALID,0,VALID,24.0837,VALID,152,VALID,1.05039,
2010-03-09, 00:40:04,VALID,1011.67,VALID,0,VALID,99.4627,VALID,0,VALID,24.0624,VALID,163,VALID,0.659375,
2010-03-09, 00:41:04,VALID,1011.68,VALID,0,VALID,99.5237,VALID,0.105969,VALID,24.0837,VALID,193,VALID,0.536719,
2010-03-09, 00:42:04,VALID,1011.65,VALID,0,VALID,99.5695,VALID,0,VALID,24.0643,VALID,243,VALID,0.380469,
2010-03-09, 00:43:04,VALID,1011.61,VALID,0,VALID,99.6991,VALID,0,VALID,24.0643,VALID,260,VALID,0,
2010-03-09, 00:44:04,VALID,1011.61,VALID,0,VALID,99.8516,VALID,0,VALID,24.0429,VALID,260,VALID,0,
2010-03-09, 00:45:04,VALID,1011.56,VALID,0,VALID,99.844,VALID,0.105969,VALID,24.0429,VALID,260,VALID,0.115234,
2010-03-09, 00:46:04,VALID,1011.53,VALID,0,VALID,99.9736,VALID,0,VALID,24.0624,VALID,259,VALID,0.0621094,
2010-03-09, 00:47:04,VALID,1011.5,VALID,0,VALID,99.9202,VALID,0,VALID,24.0837,VALID,220,VALID,0.527344,
2010-03-09, 00:48:04,VALID,1011.48,VALID,0,VALID,99.8821,VALID,0,VALID,24.0819,VALID,220,VALID,0,
2010-03-09, 00:49:04,VALID,1011.45,VALID,0,VALID,99.9355,VALID,0,VALID,24.1227,VALID,220,VALID,0.201172,
2010-03-09, 00:50:04,VALID,1011.43,VALID,0,VALID,99.8592,VALID,0,VALID,24.1014,VALID,212,VALID,0.555078,
2010-03-09, 00:51:04,VALID,1011.43,VALID,0,VALID,99.8974,VALID,0,VALID,24.1404,VALID,205,VALID,0.00234375,
2010-03-09, 00:52:04,VALID,1011.4,VALID,0,VALID,99.8974,VALID,0,VALID,24.1404,VALID,205,VALID,0.130859,
2010-03-09, 00:53:04,VALID,1011.4,VALID,0,VALID,99.7449,VALID,0.105969,VALID,24.1599,VALID,218,VALID,0.584375,
2010-03-09, 00:54:04,VALID,1011.36,VALID,0,VALID,99.6686,VALID,0,VALID,24.1812,VALID,229,VALID,0.345313,
2010-03-09, 00:55:04,VALID,1011.34,VALID,0,VALID,99.4551,VALID,0,VALID,24.1793,VALID,184,VALID,1.06328,
2010-03-09, 00:56:04,VALID,1011.37,VALID,0,VALID,99.3483,VALID,0.105969,VALID,24.1988,VALID,200,VALID,0.536328,
2010-03-09, 00:57:04,VALID,1011.39,VALID,0,VALID,99.2339,VALID,0.105969,VALID,24.2378,VALID,186,VALID,0.532422,
2010-03-09, 00:58:04,VALID,1011.38,VALID,0,VALID,99.0967,VALID,0,VALID,24.2378,VALID,178,VALID,0.460547,
2010-03-09, 00:59:04,VALID,1011.37,VALID,0,VALID,98.8908,VALID,0,VALID,24.2591,VALID,166,VALID,0.624609,
2010-03-09, 01:00:04,VALID,1011.41,VALID,0,VALID,98.9213,VALID,0,VALID,24.2591,VALID,164,VALID,0.680078,
2010-03-09, 01:01:04,VALID,1011.38,VALID,0,VALID,98.9594,VALID,0.105969,VALID,24.2573,VALID,143,VALID,0.469531,
2010-03-09, 01:02:04,VALID,1011.4,VALID,0,VALID,98.9899,VALID,0.105969,VALID,24.2573,VALID,136,VALID,0.473828,
2010-03-09, 01:03:04,VALID,1011.36,VALID,0,VALID,99.0509,VALID,0,VALID,24.2786,VALID,131,VALID,0.785156,
2010-03-09, 01:04:04,VALID,1011.36,VALID,0,VALID,99.1653,VALID,0,VALID,24.2786,VALID,138,VALID,0.843359,
2010-03-09, 01:05:04,VALID,1011.35,VALID,0,VALID,99.0585,VALID,0,VALID,24.2591,VALID,133,VALID,0.488672,
2010-03-09, 01:06:04,VALID,1011.36,VALID,0,VALID,98.8908,VALID,0,VALID,24.2573,VALID,130,VALID,0.615234,
2010-03-09, 01:07:04,VALID,1011.35,VALID,0,VALID,98.8374,VALID,0,VALID,24.2786,VALID,143,VALID,0.591016,
2010-03-09, 01:08:04,VALID,1011.35,VALID,0,VALID,98.8831,VALID,0.105969,VALID,24.2768,VALID,143,VALID,0.564453,
2010-03-09, 01:09:04,VALID,1011.35,VALID,0,VALID,99.1195,VALID,0,VALID,24.2981,VALID,127,VALID,0.580469,
2010-03-09, 01:10:04,VALID,1011.35,VALID,0,VALID,99.0509,VALID,0,VALID,24.2768,VALID,125,VALID,0.723437,
2010-03-09, 01:11:04,VALID,1011.34,VALID,0,VALID,99.2797,VALID,0.105969,VALID,24.2981,VALID,115,VALID,0.745703,
2010-03-09, 01:12:04,VALID,1011.32,VALID,0,VALID,99.2339,VALID,0,VALID,24.2981,VALID,115,VALID,0.605859,
2010-03-09, 01:13:04,VALID,1011.32,VALID,0,VALID,99.2873,VALID,0,VALID,24.2573,VALID,103,VALID,0.609766,
2010-03-09, 01:14:04,VALID,1011.32,VALID,0,VALID,99.3407,VALID,0,VALID,24.2981,VALID,103,VALID,0.714063,
2010-03-09, 01:15:04,VALID,1011.31,VALID,0,VALID,98.906,VALID,0,VALID,24.2591,VALID,103,VALID,0.823047,
2010-03-09, 01:16:04,VALID,1011.31,VALID,0,VALID,98.9213,VALID,0,VALID,24.2786,VALID,112,VALID,0.619531,
2010-03-09, 01:17:04,VALID,1011.3,VALID,0,VALID,98.7383,VALID,0.105969,VALID,24.2378,VALID,126,VALID,1.34687,
2010-03-09, 01:18:04,VALID,1011.32,VALID,0,VALID,98.6696,VALID,0.105969,VALID,24.2378,VALID,107,VALID,1.2668,
2010-03-09, 01:19:04,VALID,1011.32,VALID,0,VALID,98.6544,VALID,0.105969,VALID,24.2378,VALID,136,VALID,0.599609,
2010-03-09, 01:20:04,VALID,1011.31,VALID,0,VALID,98.8374,VALID,0,VALID,24.2396,VALID,99,VALID,0.952734,
2010-03-09, 01:21:04,VALID,1011.28,VALID,0,VALID,98.8374,VALID,0,VALID,24.2396,VALID,117,VALID,0.689844,
2010-03-09, 01:22:04,VALID,1011.29,VALID,0,VALID,98.9747,VALID,0.105969,VALID,24.2396,VALID,113,VALID,0.497266,
2010-03-09, 01:23:04,VALID,1011.28,VALID,0,VALID,99.0738,VALID,0,VALID,24.2183,VALID,135,VALID,0.372266,
2010-03-09, 01:24:04,VALID,1011.28,VALID,0,VALID,99.1119,VALID,0.105969,VALID,24.2183,VALID,77,VALID,0.241016,
2010-03-09, 01:25:04,VALID,1011.27,VALID,0,VALID,99.0662,VALID,0.105969,VALID,24.2396,VALID,89,VALID,0.509375,
2010-03-09, 01:26:04,VALID,1011.24,VALID,0,VALID,99.1653,VALID,0.105969,VALID,24.2378,VALID,63,VALID,0.555078,
2010-03-09, 01:27:04,VALID,1011.25,VALID,0,VALID,99.2797,VALID,0,VALID,24.2183,VALID,55,VALID,0.527734,
2010-03-09, 01:28:04,VALID,1011.22,VALID,0,VALID,99.6305,VALID,0,VALID,24.2396,VALID,44,VALID,0.394922,
2010-03-09, 01:29:04,VALID,1011.24,VALID,0,VALID,99.8211,VALID,0.105969,VALID,24.1793,VALID,44,VALID,0.421094,
2010-03-09, 01:30:04,VALID,1011.2,VALID,0,VALID,99.8821,VALID,0.105969,VALID,24.1404,VALID,359,VALID,0.743359,
2010-03-09, 01:31:04,VALID,1011.19,VALID,0,VALID,99.7754,VALID,0,VALID,24.0819,VALID,5,VALID,0.898047,
2010-03-09, 01:32:04,VALID,1011.16,VALID,0,VALID,99.6838,VALID,0.105969,VALID,24.0429,VALID,338,VALID,0.803906,
2010-03-09, 01:33:04,VALID,1011.13,VALID,0,VALID,99.9279,VALID,0.105969,VALID,24.0643,VALID,331,VALID,0.550781,
2010-03-09, 01:34:04,VALID,1011.15,VALID,0,VALID,100.119,VALID,0,VALID,24.004,VALID,359,VALID,0.735937,
2010-03-09, 01:35:04,VALID,1011.15,VALID,0,VALID,100.248,VALID,0.105969,VALID,24.0058,VALID,356,VALID,0.7,
2010-03-09, 01:36:04,VALID,1011.11,VALID,0,VALID,100.286,VALID,0,VALID,23.926,VALID,17,VALID,0.514453,
2010-03-09, 01:37:04,VALID,1011.09,VALID,0,VALID,100.355,VALID,0,VALID,23.9278,VALID,22,VALID,0.619922,
2010-03-09, 01:38:04,VALID,1011.08,VALID,0,VALID,100.523,VALID,0,VALID,23.8871,VALID,21,VALID,0.361719,
2010-03-09, 01:39:04,VALID,1011.06,VALID,0,VALID,100.591,VALID,0.105969,VALID,23.8676,VALID,29,VALID,0.456641,
2010-03-09, 01:40:04,VALID,1011.05,VALID,0,VALID,100.683,VALID,0.105969,VALID,23.8481,VALID,29,VALID,0.172266,
2010-03-09, 01:41:04,VALID,1011.08,VALID,0,VALID,100.759,VALID,0,VALID,23.8286,VALID,29,VALID,0,
2010-03-09, 01:42:04,VALID,1011.11,VALID,0,VALID,100.835,VALID,0,VALID,23.8286,VALID,29,VALID,0,
2010-03-09, 01:43:04,VALID,1011.11,VALID,0,VALID,100.904,VALID,0,VALID,23.8499,VALID,29,VALID,0.219141,
2010-03-09, 01:44:04,VALID,1011.11,VALID,0,VALID,100.965,VALID,0,VALID,23.8304,VALID,29,VALID,0.251172,
2010-03-09, 01:45:04,VALID,1011.16,VALID,0,VALID,100.965,VALID,0,VALID,23.8304,VALID,29,VALID,0.330859,
2010-03-09, 01:46:04,VALID,1011.13,VALID,0,VALID,101.034,VALID,0,VALID,23.8499,VALID,32,VALID,0.540625,
2010-03-09, 01:47:04,VALID,1011.12,VALID,0,VALID,101.072,VALID,0,VALID,23.8304,VALID,40,VALID,0.528125,
2010-03-09, 01:48:04,VALID,1011.16,VALID,0,VALID,101.072,VALID,0,VALID,23.8091,VALID,40,VALID,0.517578,
2010-03-09, 01:49:04,VALID,1011.14,VALID,0,VALID,101.087,VALID,0.105969,VALID,23.8091,VALID,44,VALID,0.271875,
2010-03-09, 01:50:04,VALID,1011.15,VALID,0,VALID,101.102,VALID,0.105969,VALID,23.8109,VALID,44,VALID,0.40625,
2010-03-09, 01:51:04,VALID,1011.11,VALID,0,VALID,101.117,VALID,0.105969,VALID,23.8304,VALID,113,VALID,1.21602,
2010-03-09, 01:52:04,VALID,1011.11,VALID,0,VALID,101.095,VALID,0,VALID,23.772,VALID,94,VALID,1.12539,
2010-03-09, 01:53:04,VALID,1011.13,VALID,0,VALID,101.049,VALID,0,VALID,23.7507,VALID,106,VALID,0.911328,
2010-03-09, 01:54:04,VALID,1011.1,VALID,0,VALID,101.072,VALID,0.105969,VALID,23.7701,VALID,101,VALID,0.789453,
2010-03-09, 01:55:04,VALID,1011.11,VALID,0,VALID,101.056,VALID,0,VALID,23.7507,VALID,98,VALID,1.19492,
2010-03-09, 01:56:04,VALID,1011.07,VALID,0,VALID,101.064,VALID,0.105969,VALID,23.7507,VALID,97,VALID,1.30938,
2010-03-09, 01:57:04,VALID,1011.07,VALID,0,VALID,100.988,VALID,0.105969,VALID,23.7312,VALID,55,VALID,0.701563,
2010-03-09, 01:58:04,VALID,1011.08,VALID,0,VALID,100.973,VALID,0,VALID,23.733,VALID,85,VALID,0.657812,
2010-03-09, 01:59:04,VALID,1011.14,VALID,0,VALID,100.957,VALID,0,VALID,23.7135,VALID,110,VALID,1.01328,
2010-03-09, 02:00:04,VALID,1011.16,VALID,0,VALID,100.957,VALID,0.105969,VALID,23.6922,VALID,152,VALID,1.44922,
2010-03-09, 02:01:04,VALID,1011.18,VALID,0,VALID,100.973,VALID,0,VALID,23.6922,VALID,136,VALID,1.1418,
2010-03-09, 02:02:04,VALID,1011.18,VALID,0,VALID,100.98,VALID,0.105969,VALID,23.6532,VALID,128,VALID,1.35195,
2010-03-09, 02:03:04,VALID,1011.17,VALID,0,VALID,101.011,VALID,0,VALID,23.6745,VALID,121,VALID,1.21328,
2010-03-09, 02:04:04,VALID,1011.15,VALID,0,VALID,101.026,VALID,0.105969,VALID,23.6745,VALID,81,VALID,1.4582,
2010-03-09, 02:05:04,VALID,1011.18,VALID,0,VALID,101.041,VALID,0,VALID,23.6745,VALID,77,VALID,1.0832,
2010-03-09, 02:06:04,VALID,1011.22,VALID,0,VALID,101.049,VALID,0,VALID,23.6745,VALID,95,VALID,1.63867,
2010-03-09, 02:07:04,VALID,1011.26,VALID,0,VALID,101.056,VALID,0,VALID,23.6532,VALID,106,VALID,1.19141,
2010-03-09, 02:08:04,VALID,1011.3,VALID,0,VALID,101.049,VALID,0,VALID,23.6745,VALID,116,VALID,2.19258,
2010-03-09, 02:09:04,VALID,1011.31,VALID,0,VALID,101.011,VALID,0,VALID,23.6745,VALID,112,VALID,1.43906,
2010-03-09, 02:10:04,VALID,1011.32,VALID,0,VALID,100.995,VALID,0,VALID,23.6338,VALID,105,VALID,2.2293,
2010-03-09, 02:11:04,VALID,1011.35,VALID,0,VALID,100.934,VALID,0,VALID,23.6532,VALID,106,VALID,1.47461,
2010-03-09, 02:12:04,VALID,1011.38,VALID,0,VALID,100.919,VALID,0,VALID,23.6338,VALID,120,VALID,1.42969,
2010-03-09, 02:13:04,VALID,1011.39,VALID,0,VALID,100.98,VALID,0,VALID,23.6338,VALID,126,VALID,1.7375,
2010-03-09, 02:14:04,VALID,1011.41,VALID,0,VALID,100.942,VALID,0,VALID,23.655,VALID,125,VALID,1.29023,
2010-03-09, 02:15:04,VALID,1011.4,VALID,0,VALID,100.927,VALID,0.105969,VALID,23.655,VALID,123,VALID,2.01992,
2010-03-09, 02:16:04,VALID,1011.4,VALID,0,VALID,100.904,VALID,0,VALID,23.655,VALID,137,VALID,1.27344,
2010-03-09, 02:17:04,VALID,1011.38,VALID,0,VALID,100.896,VALID,0.105969,VALID,23.6338,VALID,125,VALID,1.94883,
2010-03-09, 02:18:04,VALID,1011.37,VALID,0,VALID,100.851,VALID,0,VALID,23.6338,VALID,135,VALID,1.24688,
2010-03-09, 02:19:04,VALID,1011.36,VALID,0,VALID,100.82,VALID,0,VALID,23.655,VALID,126,VALID,1.69844,
2010-03-09, 02:20:04,VALID,1011.36,VALID,0,VALID,100.805,VALID,0,VALID,23.6532,VALID,149,VALID,1.14766,
2010-03-09, 02:21:04,VALID,1011.39,VALID,0,VALID,100.774,VALID,0,VALID,23.694,VALID,94,VALID,0.772656,
2010-03-09, 02:22:04,VALID,1011.39,VALID,0,VALID,100.797,VALID,0.105969,VALID,23.694,VALID,88,VALID,0.977734,
2010-03-09, 02:23:04,VALID,1011.43,VALID,0,VALID,100.736,VALID,0,VALID,23.6745,VALID,87,VALID,1.1543,
2010-03-09, 02:24:04,VALID,1011.4,VALID,0,VALID,100.629,VALID,0,VALID,23.6532,VALID,84,VALID,0.927734,
2010-03-09, 02:25:04,VALID,1011.38,VALID,0,VALID,100.576,VALID,0,VALID,23.694,VALID,111,VALID,0.934766,
2010-03-09, 02:26:04,VALID,1011.35,VALID,0,VALID,100.523,VALID,0,VALID,23.6745,VALID,116,VALID,0.695313,
2010-03-09, 02:27:04,VALID,1011.35,VALID,0,VALID,100.53,VALID,0,VALID,23.694,VALID,117,VALID,0.00117188,
2010-03-09, 02:28:04,VALID,1011.35,VALID,0,VALID,100.462,VALID,0,VALID,23.694,VALID,124,VALID,0.371875,
2010-03-09, 02:29:04,VALID,1011.37,VALID,0,VALID,100.401,VALID,0,VALID,23.6745,VALID,145,VALID,0.945313,
2010-03-09, 02:30:04,VALID,1011.38,VALID,0,VALID,100.263,VALID,0.105969,VALID,23.6745,VALID,134,VALID,0.557813,
2010-03-09, 02:31:04,VALID,1011.45,VALID,0,VALID,100.225,VALID,0,VALID,23.6745,VALID,110,VALID,0.945703,
2010-03-09, 02:32:04,VALID,1011.45,VALID,0,VALID,100.058,VALID,0,VALID,23.655,VALID,139,VALID,0.750391,
2010-03-09, 02:33:04,VALID,1011.46,VALID,0,VALID,99.7144,VALID,0,VALID,23.6356,VALID,124,VALID,1.14805,
2010-03-09, 02:34:04,VALID,1011.51,VALID,0,VALID,99.4093,VALID,0,VALID,23.6745,VALID,130,VALID,1.62891,
2010-03-09, 02:35:04,VALID,1011.49,VALID,0,VALID,99.1653,VALID,0,VALID,23.6532,VALID,107,VALID,1.52891,
2010-03-09, 02:36:04,VALID,1011.47,VALID,0,VALID,99.2568,VALID,0,VALID,23.6356,VALID,141,VALID,1.57383,
2010-03-09, 02:37:04,VALID,1011.46,VALID,0,VALID,99.2111,VALID,0.105969,VALID,23.6356,VALID,130,VALID,1.48945,
2010-03-09, 02:38:04,VALID,1011.42,VALID,0,VALID,99.3102,VALID,0,VALID,23.6356,VALID,182,VALID,1.24648,
2010-03-09, 02:39:04,VALID,1011.39,VALID,0,VALID,99.2644,VALID,0,VALID,23.6161,VALID,139,VALID,1.46484,
2010-03-09, 02:40:04,VALID,1011.37,VALID,0,VALID,99.1805,VALID,0.105969,VALID,23.5966,VALID,166,VALID,1.45273,
2010-03-09, 02:41:04,VALID,1011.4,VALID,0,VALID,98.9747,VALID,0,VALID,23.5753,VALID,174,VALID,1.51758,
2010-03-09, 02:42:04,VALID,1011.38,VALID,0,VALID,99.15,VALID,0,VALID,23.5966,VALID,132,VALID,1.37773,
2010-03-09, 02:43:04,VALID,1011.39,VALID,0,VALID,99.2339,VALID,0,VALID,23.5771,VALID,164,VALID,1.12227,
2010-03-09, 02:44:04,VALID,1011.4,VALID,0,VALID,99.1958,VALID,0,VALID,23.5363,VALID,145,VALID,0.803125,
2010-03-09, 02:45:04,VALID,1011.41,VALID,0,VALID,99.1958,VALID,0,VALID,23.5576,VALID,158,VALID,0.409766,
2010-03-09, 02:46:04,VALID,1011.42,VALID,0,VALID,99.4093,VALID,0,VALID,23.5576,VALID,135,VALID,0.558203,
2010-03-09, 02:47:04,VALID,1011.45,VALID,0,VALID,99.5085,VALID,0,VALID,23.5576,VALID,136,VALID,0.389062,
2010-03-09, 02:48:04,VALID,1011.42,VALID,0,VALID,99.4322,VALID,0,VALID,23.5576,VALID,164,VALID,1.07539,
2010-03-09, 02:49:04,VALID,1011.43,VALID,0,VALID,99.5161,VALID,0,VALID,23.5363,VALID,133,VALID,0.51875,
2010-03-09, 02:50:04,VALID,1011.45,VALID,0,VALID,99.4169,VALID,0.105969,VALID,23.5169,VALID,133,VALID,0.640234,
2010-03-09, 02:51:04,VALID,1011.51,VALID,0,VALID,99.3864,VALID,0,VALID,23.5576,VALID,153,VALID,0.278906,
2010-03-09, 02:52:04,VALID,1011.52,VALID,0,VALID,99.5085,VALID,0,VALID,23.5363,VALID,153,VALID,0,
2010-03-09, 02:53:04,VALID,1011.54,VALID,0,VALID,99.6686,VALID,0,VALID,23.5576,VALID,107,VALID,0.682813,
2010-03-09, 02:54:04,VALID,1011.54,VALID,0,VALID,99.4703,VALID,0,VALID,23.5576,VALID,109,VALID,0.913281,
2010-03-09, 02:55:04,VALID,1011.56,VALID,0,VALID,99.3712,VALID,0.105969,VALID,23.5558,VALID,117,VALID,0.811719,
2010-03-09, 02:56:04,VALID,1011.55,VALID,0,VALID,99.2416,VALID,0,VALID,23.5576,VALID,129,VALID,1.1707,
2010-03-09, 02:57:04,VALID,1011.52,VALID,0,VALID,99.1958,VALID,0,VALID,23.5363,VALID,125,VALID,0.937891,
2010-03-09, 02:58:04,VALID,1011.51,VALID,0,VALID,99.0967,VALID,0,VALID,23.5771,VALID,114,VALID,0.680859,
2010-03-09, 02:59:04,VALID,1011.56,VALID,0,VALID,99.2568,VALID,0,VALID,23.5558,VALID,137,VALID,1.27969,
2010-03-09, 03:00:04,VALID,1011.56,VALID,0,VALID,99.1424,VALID,0,VALID,23.5558,VALID,114,VALID,0.756641,
2010-03-09, 03:01:04,VALID,1011.55,VALID,0,VALID,99.3788,VALID,0.105969,VALID,23.5771,VALID,122,VALID,0.710938,
2010-03-09, 03:02:04,VALID,1011.6,VALID,0,VALID,99.5161,VALID,0.105969,VALID,23.5558,VALID,115,VALID,0.691797,
2010-03-09, 03:03:04,VALID,1011.59,VALID,0,VALID,99.6305,VALID,0,VALID,23.5771,VALID,128,VALID,0.996094,
2010-03-09, 03:04:04,VALID,1011.59,VALID,0,VALID,99.5847,VALID,0,VALID,23.5576,VALID,112,VALID,1.16953,
2010-03-09, 03:05:04,VALID,1011.55,VALID,0,VALID,99.6457,VALID,0,VALID,23.5576,VALID,123,VALID,0.508984,
2010-03-09, 03:06:04,VALID,1011.56,VALID,0,VALID,99.7525,VALID,0,VALID,23.5363,VALID,130,VALID,0.850391,
2010-03-09, 03:07:04,VALID,1011.54,VALID,0,VALID,99.783,VALID,0.105969,VALID,23.5169,VALID,135,VALID,0.550781,
2010-03-09, 03:08:04,VALID,1011.51,VALID,0,VALID,99.6686,VALID,0.105969,VALID,23.5169,VALID,139,VALID,1.38828,
2010-03-09, 03:09:04,VALID,1011.53,VALID,0,VALID,99.5847,VALID,0.105969,VALID,23.4974,VALID,130,VALID,1.51836,
2010-03-09, 03:10:04,VALID,1011.56,VALID,0,VALID,99.5695,VALID,0.105969,VALID,23.4779,VALID,124,VALID,1.20195,
2010-03-09, 03:11:04,VALID,1011.56,VALID,0,VALID,99.6686,VALID,0.105969,VALID,23.4797,VALID,122,VALID,1.10508,
2010-03-09, 03:12:04,VALID,1011.58,VALID,0,VALID,99.7296,VALID,0.105969,VALID,23.4584,VALID,139,VALID,0.609766,
2010-03-09, 03:13:04,VALID,1011.61,VALID,0,VALID,99.783,VALID,0.105969,VALID,23.4797,VALID,138,VALID,0.744922,
2010-03-09, 03:14:04,VALID,1011.61,VALID,0,VALID,99.8287,VALID,0,VALID,23.4407,VALID,130,VALID,0.574609,
2010-03-09, 03:15:04,VALID,1011.61,VALID,0,VALID,99.8135,VALID,0,VALID,23.4212,VALID,123,VALID,1.46016,
2010-03-09, 03:16:04,VALID,1011.61,VALID,0,VALID,99.8364,VALID,0,VALID,23.4017,VALID,120,VALID,1.16367,
2010-03-09, 03:17:04,VALID,1011.58,VALID,0,VALID,99.8592,VALID,0,VALID,23.4017,VALID,119,VALID,1.10625,
2010-03-09, 03:18:04,VALID,1011.61,VALID,0,VALID,99.9279,VALID,0,VALID,23.4212,VALID,135,VALID,1.00391,
2010-03-09, 03:19:04,VALID,1011.57,VALID,0,VALID,100.027,VALID,0,VALID,23.3823,VALID,129,VALID,0.998047,
2010-03-09, 03:20:04,VALID,1011.56,VALID,0,VALID,99.9508,VALID,0,VALID,23.423,VALID,150,VALID,1.02109,
2010-03-09, 03:21:04,VALID,1011.59,VALID,0,VALID,99.7906,VALID,0,VALID,23.3823,VALID,133,VALID,1.37188,
2010-03-09, 03:22:04,VALID,1011.59,VALID,0,VALID,99.7296,VALID,0,VALID,23.4212,VALID,115,VALID,0.247266,
2010-03-09, 03:23:04,VALID,1011.58,VALID,0,VALID,99.722,VALID,0,VALID,23.4425,VALID,108,VALID,0.617578,
2010-03-09, 03:24:04,VALID,1011.57,VALID,0,VALID,99.6,VALID,0,VALID,23.4017,VALID,115,VALID,0.851563,
2010-03-09, 03:25:04,VALID,1011.6,VALID,0,VALID,99.5313,VALID,0,VALID,23.4017,VALID,114,VALID,0.616016,
2010-03-09, 03:26:04,VALID,1011.59,VALID,0,VALID,99.478,VALID,0,VALID,23.4443,VALID,124,VALID,0.842188,
2010-03-09, 03:27:04,VALID,1011.61,VALID,0,VALID,99.4169,VALID,0,VALID,23.4212,VALID,157,VALID,1.15937,
2010-03-09, 03:28:04,VALID,1011.63,VALID,0,VALID,99.2949,VALID,0,VALID,23.423,VALID,143,VALID,0.967578,
2010-03-09, 03:29:04,VALID,1011.66,VALID,0,VALID,99.3712,VALID,0,VALID,23.4194,VALID,162,VALID,0.689453,
2010-03-09, 03:30:04,VALID,1011.65,VALID,0,VALID,99.3102,VALID,0,VALID,23.4,VALID,152,VALID,1.01602,
2010-03-09, 03:31:04,VALID,1011.68,VALID,0,VALID,99.2797,VALID,0.105969,VALID,23.4194,VALID,137,VALID,1.08672,
2010-03-09, 03:32:04,VALID,1011.67,VALID,0,VALID,99.2644,VALID,0,VALID,23.4407,VALID,139,VALID,0.81875,
2010-03-09, 03:33:04,VALID,1011.69,VALID,0,VALID,99.3026,VALID,0,VALID,23.4194,VALID,133,VALID,0.622266,
2010-03-09, 03:34:04,VALID,1011.66,VALID,0,VALID,99.3407,VALID,0.105969,VALID,23.4407,VALID,159,VALID,1.1457,
2010-03-09, 03:35:04,VALID,1011.66,VALID,0,VALID,99.3636,VALID,0,VALID,23.4407,VALID,131,VALID,1.21133,
2010-03-09, 03:36:04,VALID,1011.68,VALID,0,VALID,99.3864,VALID,0,VALID,23.4,VALID,128,VALID,0.966406,
2010-03-09, 03:37:04,VALID,1011.67,VALID,0,VALID,99.3788,VALID,0.105969,VALID,23.4194,VALID,149,VALID,0.928125,
2010-03-09, 03:38:04,VALID,1011.68,VALID,0,VALID,99.3559,VALID,0.105969,VALID,23.4407,VALID,146,VALID,0.971094,
2010-03-09, 03:39:04,VALID,1011.66,VALID,0,VALID,99.3788,VALID,0,VALID,23.4407,VALID,105,VALID,0.536719,
2010-03-09, 03:40:04,VALID,1011.67,VALID,0,VALID,99.3483,VALID,0,VALID,23.4194,VALID,143,VALID,0.765234,
2010-03-09, 03:41:04,VALID,1011.68,VALID,0,VALID,99.3026,VALID,0.105969,VALID,23.4194,VALID,137,VALID,0.598047,